Location: Anna District 4 Election Precinct
(37.4833°N, 89.2195°W)
Time: 23:21:42
(UTC+00:00)

NOAA 12 - Pass Details

Date: 11 March 2021
Orbit: 795 x 815 km, 98.5° (Epoch: 12 April)

Event Time Altitude Azimuth Distance (km) Brightness Sun altitude
Rises 00:47:55 0° 214° (SW) 3,317 7.8 -10.4°
Reaches altitude 10° 00:51:35 10° 241° (WSW) 2,395 7.5 -11.1°
Maximum altitude 00:54:04 13° 269° (W) 2,171 7.8 -11.6°
Drops below altitude 10° 00:56:35 10° 298° (WNW) 2,407 7.7 -12.1°
Sets 01:00:18 0° 324° (NW) 3,346 8.0 -12.8°
